When you browse on this site, cookies collect data to enhance your experience and personalize the content and advertising you see.
Visit our Privacy Policy to learn more. By continuing to use the site, you agree to this use of cookies and data.
  • In Austria
  • List of Countries
  • For 7 days
  • Water Temperature
  • Weather Map
  • News
  • Weather Widgets
  • user-avatar
    Login

    Hourly Weather Pachuca de Soto

    Today, 25 August, Sunday

    Time Temperature Precipitation Wind Pressure Humidity
    00:00 +15°C° 0 mm 1 mps 573 mmHg 85%
    01:00 +15°C° 0 mm 1 mps 573 mmHg 85%
    02:00 +15°C° 0 mm 1 mps 572 mmHg 84%
    03:00 +14°C° 0 mm 1 mps 572 mmHg 84%
    04:00 +14°C° 0 mm 1 mps 572 mmHg 84%
    05:00 +13°C° 0 mm 1 mps 572 mmHg 85%
    06:00 +15°C° 0 mm 1 mps 573 mmHg 78%
    07:00 +18°C° 0 mm 1 mps 574 mmHg 72%
    08:00 +20°C° 0 mm 1 mps 575 mmHg 66%
    09:00 +21°C° 0 mm 1 mps 575 mmHg 60%
    10:00 +23°C° 0 mm 1 mps 576 mmHg 53%
    11:00 +24°C° 0 mm 2 mps 576 mmHg 47%
    12:00 +24°C° 0.4 mm 2 mps 575 mmHg 49%
    13:00 +24°C° 0.4 mm 2 mps 575 mmHg 51%
    14:00 +24°C° 0.4 mm 3 mps 574 mmHg 53%
    15:00 +22°C° 1.3 mm 3 mps 574 mmHg 59%
    16:00 +21°C° 1.3 mm 2 mps 573 mmHg 65%
    17:00 +20°C° 1.3 mm 2 mps 573 mmHg 71%
    18:00 +19°C° 0.6 mm 2 mps 573 mmHg 74%
    19:00 +18°C° 0.6 mm 2 mps 573 mmHg 77%
    20:00 +18°C° 0.6 mm 1 mps 573 mmHg 79%
    21:00 +16°C° 0.2 mm 1 mps 572 mmHg 80%
    22:00 +16°C° 0.2 mm 1 mps 572 mmHg 81%
    23:00 +14°C° 0.2 mm 0 mps 572 mmHg 81%

    Tomorrow, 26 August, Monday

    Time Temperature Precipitation Wind Pressure Humidity
    00:00 +15°C° 0.1 mm 1 mps 571 mmHg 82%
    01:00 +14°C° 0.1 mm 1 mps 571 mmHg 83%
    02:00 +14°C° 0.1 mm 1 mps 571 mmHg 84%
    03:00 +14°C° 0.1 mm 1 mps 571 mmHg 84%
    04:00 +14°C° 0.1 mm 1 mps 570 mmHg 84%
    05:00 +14°C° 0.1 mm 1 mps 570 mmHg 84%
    06:00 +15°C° 0 mm 1 mps 571 mmHg 80%
    07:00 +16°C° 0 mm 0 mps 572 mmHg 75%
    08:00 +17°C° 0 mm 0 mps 573 mmHg 70%
    09:00 +20°C° 0.7 mm 1 mps 574 mmHg 66%
    10:00 +22°C° 0.7 mm 1 mps 574 mmHg 62%
    11:00 +23°C° 0.7 mm 1 mps 574 mmHg 57%
    12:00 +23°C° 0.8 mm 2 mps 574 mmHg 57%
    13:00 +23°C° 0.8 mm 2 mps 573 mmHg 58%
    14:00 +22°C° 0.8 mm 3 mps 573 mmHg 58%
    15:00 +21°C° 1.3 mm 3 mps 572 mmHg 64%
    16:00 +20°C° 1.3 mm 3 mps 572 mmHg 70%
    17:00 +19°C° 1.3 mm 2 mps 571 mmHg 75%
    18:00 +18°C° 1.1 mm 2 mps 571 mmHg 79%
    19:00 +17°C° 1.1 mm 2 mps 572 mmHg 82%
    20:00 +16°C° 1.1 mm 1 mps 572 mmHg 85%
    21:00 +15°C° 0.1 mm 1 mps 572 mmHg 85%
    22:00 +15°C° 0.1 mm 1 mps 571 mmHg 84%
    23:00 +14°C° 0.1 mm 1 mps 571 mmHg 84%

    Day after tomorrow, 27 August, Tuesday

    Time Temperature Precipitation Wind Pressure Humidity
    00:00 +13°C° 0.1 mm 0 mps 571 mmHg 84%
    01:00 +13°C° 0.1 mm 0 mps 571 mmHg 85%
    02:00 +12°C° 0.1 mm 0 mps 570 mmHg 85%
    03:00 +12°C° 0 mm 0 mps 570 mmHg 86%
    04:00 +12°C° 0 mm 0 mps 570 mmHg 87%
    05:00 +12°C° 0 mm 0 mps 570 mmHg 88%
    06:00 +13°C° 0 mm 0 mps 571 mmHg 82%
    07:00 +15°C° 0 mm 0 mps 572 mmHg 77%
    08:00 +17°C° 0 mm 0 mps 574 mmHg 72%
    09:00 +20°C° 0 mm 1 mps 574 mmHg 65%
    10:00 +22°C° 0 mm 1 mps 574 mmHg 59%
    11:00 +23°C° 0 mm 2 mps 575 mmHg 53%
    12:00 +23°C° 1 mm 2 mps 574 mmHg 56%
    13:00 +22°C° 1 mm 3 mps 574 mmHg 59%
    14:00 +21°C° 1 mm 4 mps 573 mmHg 62%
    15:00 +20°C° 1.3 mm 3 mps 573 mmHg 68%
    16:00 +19°C° 1.3 mm 3 mps 572 mmHg 74%
    17:00 +18°C° 1.3 mm 3 mps 572 mmHg 80%
    18:00 +17°C° 0.6 mm 3 mps 572 mmHg 83%
    19:00 +16°C° 0.6 mm 2 mps 572 mmHg 86%
    20:00 +15°C° 0.6 mm 2 mps 572 mmHg 89%
    21:00 +15°C° 0.3 mm 2 mps 573 mmHg 88%
    22:00 +15°C° 0.3 mm 1 mps 573 mmHg 87%
    23:00 +14°C° 0.3 mm 1 mps 573 mmHg 86%

    28 August, Wednesday

    Time Temperature Precipitation Wind Pressure Humidity
    00:00 +14°C° 0.1 mm 1 mps 573 mmHg 85%
    01:00 +14°C° 0.1 mm 1 mps 573 mmHg 85%
    02:00 +13°C° 0.1 mm 0 mps 572 mmHg 84%
    03:00 +13°C° 0 mm 0 mps 572 mmHg 85%
    04:00 +12°C° 0 mm 0 mps 572 mmHg 86%
    05:00 +11°C° 0 mm 0 mps 572 mmHg 87%
    06:00 +13°C° 0 mm 0 mps 573 mmHg 80%
    07:00 +15°C° 0 mm 0 mps 574 mmHg 74%
    08:00 +17°C° 0 mm 0 mps 576 mmHg 67%
    09:00 +21°C° 0 mm 1 mps 576 mmHg 61%
    10:00 +21°C° 0 mm 2 mps 576 mmHg 54%
    11:00 +22°C° 0 mm 3 mps 577 mmHg 48%
    12:00 +22°C° 0 mm 4 mps 576 mmHg 49%
    13:00 +22°C° 0 mm 5 mps 576 mmHg 50%
    14:00 +22°C° 0 mm 6 mps 575 mmHg 50%
    15:00 +21°C° 0 mm 6 mps 575 mmHg 56%
    16:00 +20°C° 0 mm 5 mps 574 mmHg 62%
    17:00 +17°C° 0 mm 5 mps 573 mmHg 68%
    18:00 +17°C° 0 mm 4 mps 573 mmHg 75%
    19:00 +14°C° 0 mm 3 mps 573 mmHg 83%
    20:00 +13°C° 0 mm 2 mps 573 mmHg 90%
    21:00 +13°C° 0 mm 2 mps 573 mmHg 91%
    22:00 +13°C° 0 mm 2 mps 573 mmHg 92%
    23:00 +12°C° 0 mm 1 mps 573 mmHg 93%

    29 August, Thursday

    Time Temperature Precipitation Wind Pressure Humidity
    00:00 +12°C° 0 mm 1 mps 572 mmHg 93%
    01:00 +12°C° 0 mm 1 mps 572 mmHg 92%
    02:00 +11°C° 0 mm 1 mps 571 mmHg 92%
    03:00 +11°C° 0 mm 1 mps 571 mmHg 91%
    04:00 +9°C° 0 mm 0 mps 571 mmHg 89%
    05:00 +9°C° 0 mm 0 mps 571 mmHg 88%
    06:00 +11°C° 0 mm 0 mps 573 mmHg 78%
    07:00 +13°C° 0 mm 0 mps 574 mmHg 68%
    08:00 +15°C° 0 mm 0 mps 575 mmHg 58%
    09:00 +19°C° 0 mm 1 mps 576 mmHg 51%
    10:00 +21°C° 0 mm 1 mps 576 mmHg 43%
    11:00 +23°C° 0 mm 2 mps 577 mmHg 35%
    12:00 +22°C° 0 mm 3 mps 577 mmHg 37%
    13:00 +23°C° 0 mm 4 mps 576 mmHg 39%
    14:00 +23°C° 0 mm 5 mps 576 mmHg 41%
    15:00 +21°C° 0.1 mm 5 mps 575 mmHg 53%
    16:00 +20°C° 0.1 mm 5 mps 574 mmHg 65%
    17:00 +18°C° 0.1 mm 4 mps 573 mmHg 77%
    18:00 +15°C° 0.2 mm 4 mps 573 mmHg 82%
    19:00 +14°C° 0.2 mm 3 mps 573 mmHg 87%
    20:00 +14°C° 0.2 mm 2 mps 573 mmHg 92%
    21:00 +13°C° 0 mm 2 mps 573 mmHg 92%
    22:00 +13°C° 0 mm 2 mps 573 mmHg 92%
    23:00 +13°C° 0 mm 1 mps 573 mmHg 92%

    30 August, Friday

    Time Temperature Precipitation Wind Pressure Humidity
    00:00 +12°C° 0 mm 1 mps 572 mmHg 91%
    01:00 +12°C° 0 mm 1 mps 572 mmHg 91%
    02:00 +10°C° 0 mm 0 mps 571 mmHg 90%
    03:00 +10°C° 0 mm 0 mps 571 mmHg 90%
    04:00 +9°C° 0 mm 0 mps 571 mmHg 89%
    05:00 +9°C° 0 mm 0 mps 571 mmHg 88%
    06:00 +11°C° 0 mm 0 mps 572 mmHg 77%
    07:00 +13°C° 0 mm 0 mps 573 mmHg 67%
    08:00 +16°C° 0 mm 0 mps 575 mmHg 57%
    09:00 +19°C° 0 mm 1 mps 575 mmHg 50%
    10:00 +21°C° 0 mm 1 mps 576 mmHg 44%
    11:00 +21°C° 0 mm 2 mps 576 mmHg 37%
    12:00 +22°C° 0 mm 3 mps 575 mmHg 39%
    13:00 +22°C° 0 mm 4 mps 575 mmHg 42%
    14:00 +22°C° 0 mm 5 mps 575 mmHg 44%
    15:00 +21°C° 0.1 mm 5 mps 574 mmHg 53%
    16:00 +19°C° 0.1 mm 4 mps 573 mmHg 62%
    17:00 +18°C° 0.1 mm 4 mps 573 mmHg 72%
    18:00 +16°C° 0.1 mm 3 mps 573 mmHg 78%
    19:00 +14°C° 0.1 mm 3 mps 572 mmHg 84%
    20:00 +13°C° 0.1 mm 2 mps 572 mmHg 90%
    21:00 +13°C° 0 mm 2 mps 572 mmHg 89%
    22:00 +13°C° 0 mm 1 mps 572 mmHg 88%
    23:00 +12°C° 0 mm 1 mps 572 mmHg 87%
    Show more